Wind_Speed
16 21 16 14 16 17 22 18 16 15 15 14 19 24 22 21 22 21 20 19 18 17 15 18 19 15 20 20 19 12 14 16 17 17 14 15 14 16 18 24 20 22 26 23
22 23 21 21 22 24 23 24 23 20 20 24 24 25 27 27 27 30 29 24 22 21 16 20 25 22 22 20 17 19 19 17 23 25 26 22 19 20 21 22 24 27 26 31
26 25 26 27 28 29 31 30 28 27 26 30 30 30 26 28 31 30 32 30 27 24 24 22 24 26 24 25 22 18 19 22 27 30 31 31 29 32 27 28 27 34 36 39
30 31 30 32 34 33 33 33 33 31 33 36 36 35 31 31 30 33 35 36 33 31 27 29 31 30 28 25 28 25 25 30 31 29 35 34 35 36 38 37 36 38 40 38
35 36 37 36 35 35 35 34 35 34 34 34 33 38 42 39 40 39 38 38 40 39 38 36 36 35 28 28 31 35 36 38 33 34 32 36 37 37 36 37 38 41 42 33
36 37 35 37 37 36 35 34 36 36 38 42 42 46 48 51 46 45 45 45 46 46 47 44 39 39 39 43 40 40 39 45 41 36 34 32 36 36 36 39 42 40 36 36
39 40 41 41 41 42 43 43 43 45 48 51 54 50 55 57 55 52 52 51 52 55 56 54 55 60 54 48 48 50 45 43 42 38 41 36 37 35 39 43 40 41 33 38
44 45 47 47 48 49 50 52 53 55 56 55 51 57 62 63 62 59 59 61 62 63 67 71 71 68 60 54 48 50 49 46 43 47 37 38 33 33 40 31 22 27 22 38
44 44 46 47 48 50 52 54 56 58 61 63 67 69 71 69 69 69 71 73 76 79 79 79 76 65 61 55 55 51 50 51 44 43 44 38 36 32 38 42 41 40 43 54
37 40 40 41 42 43 42 44 45 47 48 49 52 55 57 60 62 62 66 70 74 76 77 76 75 70 55 57 55 49 49 51 45 41 36 35 38 43 47 48 49 48 55 58
28 30 34 36 38 40 43 46 48 51 53 54 54 56 58 62 63 64 64 66 70 73 74 74 71 69 67 62 55 53 55 51 46 46 46 44 42 44 51 51 67 58 59 61
28 32 35 39 42 44 47 49 50 52 54 58 58 56 59 61 66 67 65 64 66 68 69 73 74 74 73 71 67 67 54 53 57 51 54 55 58 58 69 69 66 72 76 76
32 36 39 42 45 46 48 49 50 52 54 54 55 56 60 61 62 65 67 67 67 68 70 72 73 75 76 74 72 66 69 71 65 64 61 62 71 63 70 71 72 74 76 85
34 35 38 42 45 50 53 54 56 59 60 58 60 58 60 60 62 64 66 69 71 71 72 73 73 73 71 72 74 74 74 74 74 78 82 82 85 85 79 79 78 77 82 85
32 36 41 44 45 47 52 55 56 58 65 67 64 62 61 60 60 62 64 64 65 68 67 66 69 70 68 65 68 74 73 70 70 69 73 71 73 89 95 99 99 96 97 98
36 40 41 46 48 50 51 52 55 58 61 65 63 61 59 57 56 55 55 56 54 53 55 56 55 55 55 55 59 59 69 78 79 79 81 82 84 85 88 89 92 93 94 96
39 41 44 46 47 50 53 53 56 58 59 64 64 62 59 58 52 47 44 42 40 41 45 45 43 43 42 47 48 49 51 60 71 78 80 82 82 82 84 86 89 91 94 94
42 45 46 47 49 51 54 57 59 61 62 65 66 64 62 58 50 39 32 36 37 37 39 38 32 29 34 39 38 39 39 43 46 52 59 64 64 66 68 68 66 65 65 70
44 46 48 50 51 53 56 56 61 62 66 68 70 68 66 57 44 30 32 24 26 32 36 34 26 24 30 32 33 36 35 36 38 40 41 43 46 50 55 59 62 65 70 74
46 49 51 52 54 55 60 61 64 65 68 72 70 69 63 46 33 25 14 17 19 20 22 24 20 22 25 24 22 22 25 26 27 28 31 33 39 45 50 54 59 63 67 73
50 52 55 56 59 62 64 65 70 71 73 78 74 71 58 36 28 25 11 14 16 18 19 20 19 23 22 19 23 28 27 28 29 29 36 42 44 49 53 56 57 62 66 71
54 56 57 59 62 64 67 71 76 75 81 83 79 68 49 39 35 25 13 12 19 20 17 19 21 23 25 26 24 28 28 31 36 40 44 48 50 50 51 54 56 55 56 55
58 59 59 62 65 67 69 73 79 77 84 86 76 63 43 36 35 29 18 18 25 21 20 20 21 23 23 28 33 30 31 35 37 40 42 43 42 44 47 47 47 48 44 42
62 61 62 64 67 69 73 77 81 84 89 82 73 53 32 31 29 32 16 25 27 26 22 21 24 28 28 30 34 37 37 37 37 36 35 36 39 42 43 43 41 34 36 36
63 63 64 65 69 72 78 83 85 90 89 75 53 27 26 24 24 24 26 23 28 26 21 21 24 25 29 31 32 32 34 34 32 30 30 29 31 34 36 35 35 35 35 33
63 65 65 66 69 74 79 85 89 90 80 54 30 24 27 28 28 26 29 27 31 26 22 23 23 21 24 24 25 23 24 25 26 26 31 35 37 37 38 38 37 35 35 33
Wind_Direction
233 230 237 237 247 265 257 245 230 243 258 251 276 282 280 281 289 290 287 294 292 305 291 298 304 305 313 289 299 280 280 295 302 295 290 313 306 310 312 318 308 309 326 316
233 231 233 251 258 262 272 269 263 264 265 262 268 279 283 276 276 283 282 277 293 286 295 289 294 305 293 272 285 295 277 274 286 286 289 293 293 294 307 310 305 302 310 316
243 251 251 259 264 261 268 263 263 266 269 273 275 280 276 276 278 278 280 265 280 287 285 295 283 289 300 273 263 281 277 290 296 296 292 287 290 302 297 290 300 317 314 311
249 254 259 268 270 271 276 273 271 271 272 274 276 277 276 282 283 282 283 269 271 284 284 291 287 287 285 287 282 264 275 287 291 293 291 292 286 301 301 295 295 303 307 298
250 255 261 265 269 276 280 279 269 273 270 269 276 278 284 285 288 284 276 272 274 279 285 288 290 284 269 281 281 278 275 277 284 281 284 288 293 285 290 286 281 292 291 290
260 262 263 267 272 273 275 274 278 281 278 279 282 282 284 287 288 280 273 265 266 270 278 280 278 276 276 279 275 269 271 275 277 272 276 280 287 282 289 286 289 294 287 279
263 267 269 271 272 273 272 270 269 268 271 276 280 280 283 286 285 278 273 269 269 271 276 277 276 282 280 271 274 280 274 269 271 261 267 271 277 281 289 293 292 283 274 274
267 269 271 271 273 274 275 276 277 276 277 276 274 275 279 280 279 273 269 269 271 272 275 278 280 282 278 269 268 266 270 271 268 264 270 288 273 278 287 296 280 261 230 248
269 269 269 270 270 270 272 273 272 271 271 273 274 276 278 277 275 273 272 271 273 274 273 274 278 276 275 268 261 259 264 261 266 263 267 274 274 269 280 285 267 252 236 250
280 283 285 287 287 288 289 287 286 285 283 281 281 281 280 279 278 277 275 274 273 273 274 274 273 271 262 262 263 265 259 257 262 262 256 263 281 269 276 265 254 250 245 254
284 285 289 291 292 293 292 291 290 290 289 286 283 283 284 283 280 278 276 274 272 271 271 271 270 269 265 252 250 253 254 257 250 251 246 260 255 254 248 260 248 248 254 254
290 291 291 291 291 292 292 292 292 292 291 291 291 289 285 283 283 281 277 274 273 271 271 272 272 270 267 265 257 246 247 247 239 244 246 243 252 243 246 248 254 259 257 260
288 289 291 293 295 296 295 296 297 297 296 296 294 294 292 288 285 283 280 278 274 270 269 267 267 268 268 267 263 258 249 243 239 240 242 245 248 251 246 251 261 264 265 266
294 296 299 302 304 308 307 307 307 306 304 304 303 301 298 295 290 286 281 276 272 270 266 264 264 263 262 262 261 257 254 250 251 250 251 250 250 254 256 256 261 263 265 264
296 302 307 308 312 313 310 309 310 309 309 309 310 310 306 301 296 291 282 274 271 270 269 268 266 264 263 259 256 257 257 253 250 250 253 252 253 253 257 260 264 267 270 273
302 307 310 310 313 313 310 307 306 305 307 309 312 309 306 306 303 294 286 277 274 271 268 265 261 261 261 259 255 252 251 252 253 255 256 257 260 260 264 268 270 274 276 279
304 307 312 314 317 316 313 314 314 315 314 315 315 314 311 313 305 293 287 282 277 271 271 273 271 272 267 261 259 255 251 249 251 255 257 259 261 263 263 266 269 270 272 277
304 306 309 311 311 314 316 318 317 318 315 320 319 319 318 316 307 295 285 271 273 279 277 278 276 270 268 263 260 259 259 257 255 255 255 257 259 262 266 269 272 272 276 281
303 303 305 308 310 312 314 318 320 323 322 323 320 321 321 314 305 289 271 278 287 283 283 281 279 265 267 266 265 264 265 266 267 265 266 266 265 267 270 270 274 280 284 287
302 304 306 308 310 312 313 316 318 320 321 322 320 318 320 305 285 275 281 296 288 297 305 295 264 255 274 273 258 247 251 264 270 270 271 270 269 274 277 279 281 284 288 289
300 303 305 309 311 314 317 317 320 323 324 323 320 315 315 279 262 254 249 311 313 309 295 295 259 233 265 278 266 264 275 279 274 272 273 276 279 279 281 286 288 288 290 292
302 304 305 308 310 313 317 318 322 322 323 319 316 311 304 264 263 258 265 302 297 303 296 283 274 278 283 286 285 285 280 278 273 279 278 278 278 281 284 284 286 288 291 296
300 302 306 308 307 312 315 318 321 320 321 317 311 305 287 251 252 261 273 308 293 292 290 284 279 276 281 275 277 285 283 282 283 282 285 286 287 285 284 290 295 296 296 302
299 304 308 309 309 313 316 319 321 321 320 314 310 302 249 241 243 255 256 271 279 290 293 288 282 275 263 272 283 289 289 287 287 287 285 287 290 294 297 298 300 297 298 305
302 306 305 307 311 316 317 320 321 322 319 313 305 265 222 238 238 245 248 262 279 286 292 290 284 276 273 277 287 293 295 295 290 290 290 298 315 325 317 311 303 298 298 297
305 303 305 308 312 317 319 321 322 323 316 310 290 218 221 217 229 239 259 264 267 280 296 281 276 278 285 291 306 308 310 302 301 302 307 308 310 317 321 314 313 304 296 294
Height
11011 11011 11013 11014 11014 11013 11013 11014 11011 11012 11014 11012 11011 11011 11012 11012 11012 11012 11012 11011 11011 11012 11012 11010 11010 11011 11011 11010 11009 11008 11008 11008 11008 11006 11003 11003 11001 11000 10998 10998 10996 10996 10996 10995
11007 11008 11011 11009 11010 11008 11008 11008 11009 11009 11009 11010 11008 11008 11009 11008 11008 11008 11007 11006 11006 11007 11008 11007 11005 11005 11006 11006 11005 11005 11004 11003 11003 11001 11001 11001 11000 10998 10996 10994 10993 10992 10990 10989
11004 11004 11005 11005 11004 11003 11003 11003 11002 11004 11005 11006 11005 11004 11004 11003 11001 11001 11001 11001 11000 11000 11001 11003 11002 11001 11000 11000 11000 10999 10998 10998 10998 10997 10995 10994 10994 10995 10994 10992 10988 10984 10983 10982
11000 10999 11000 11000 10998 11000 11000 11000 11000 11001 11000 10998 11000 10999 10998 10998 10997 10995 10995 10995 10994 10993 10993 10993 10996 10995 10994 10993 10993 10993 10991 10990 10990 10991 10990 10988 10986 10986 10984 10982 10981 10980 10979 10976
10994 10994 10994 10993 10993 10994 10994 10996 10996 10994 10994 10994 10992 10991 10992 10989 10990 10989 10988 10987 10986 10985 10984 10985 10985 10987 10986 10987 10986 10985 10984 10984 10984 10985 10983 10984 10981 10977 10976 10974 10975 10973 10971 10970
10987 10988 10989 10987 10987 10989 10990 10989 10989 10988 10986 10984 10987 10985 10982 10979 10979 10979 10979 10978 10977 10976 10975 10977 10977 10977 10978 10977 10978 10977 10976 10974 10974 10975 10975 10974 10973 10970 10968 10965 10964 10963 10960 10959
10982 10981 10981 10981 10982 10983 10983 10984 10984 10982 10980 10978 10976 10977 10971 10968 10969 10967 10964 10964 10965 10964 10963 10964 10966 10966 10968 10966 10965 10963 10964 10966 10964 10964 10965 10966 10964 10963 10958 10955 10952 10950 10951 10946
10975 10974 10974 10974 10974 10973 10973 10973 10973 10971 10970 10968 10967 10965 10962 10958 10956 10955 10953 10950 10950 10948 10947 10946 10947 10949 10952 10955 10956 10953 10953 10952 10952 10953 10957 10957 10957 10955 10950 10947 10943 10939 10939 10936
10965 10966 10965 10965 10965 10963 10963 10961 10960 10960 10958 10956 10952 10949 10946 10943 10941 10940 10938 10935 10935 10930 10929 10930 10929 10931 10932 10936 10939 10943 10943 10941 10944 10945 10948 10949 10949 10948 10948 10942 10936 10933 10924 10920
10957 10954 10954 10953 10953 10952 10950 10948 10947 10946 10946 10944 10941 10936 10931 10926 10924 10922 10920 10917 10914 10912 10908 10909 10911 10911 10916 10916 10919 10924 10928 10931 10935 10937 10940 10939 10939 10930 10927 10922 10916 10910 10907 10904
10952 10950 10947 10946 10945 10943 10940 10938 10936 10933 10930 10929 10928 10922 10915 10906 10903 10901 10901 10899 10896 10891 10889 10887 10891 10893 10895 10902 10906 10906 10913 10920 10922 10925 10925 10925 10918 10914 10909 10902 10899 10895 10894 10892
10945 10943 10941 10939 10937 10935 10930 10928 10925 10921 10918 10912 10910 10907 10898 10892 10883 10879 10880 10877 10874 10872 10869 10865 10865 10868 10872 10876 10884 10894 10901 10902 10903 10905 10908 10907 10905 10899 10892 10889 10882 10880 10880 10877
10940 10937 10934 10930 10927 10923 10919 10915 10911 10906 10902 10898 10894 10889 10879 10874 10868 10860 10856 10856 10854 10851 10850 10847 10845 10845 10849 10854 10861 10871 10880 10882 10883 10884 10887 10889 10888 10884 10880 10874 10871 10867 10864 10863
10933 10929 10924 10920 10916 10909 10902 10900 10895 10888 10883 10880 10873 10871 10860 10856 10849 10842 10836 10831 10829 10828 10827 10828 10830 10828 10829 10834 10837 10844 10853 10858 10861 10863 10865 10866 10867 10863 10860 10858 10855 10853 10850 10846
10926 10922 10917 10910 10907 10902 10894 10887 10882 10874 10865 10859 10856 10850 10842 10835 10829 10821 10814 10808 10805 10804 10805 10807 10809 10810 10813 10816 10819 10820 10825 10831 10836 10838 10841 10844 10845 10845 10844 10840 10839 10835 10831 10828
10916 10912 10908 10900 10898 10892 10885 10880 10875 10867 10858 10848 10841 10835 10827 10818 10809 10802 10795 10790 10787 10787 10784 10784 10786 10790 10795 10798 10802 10805 10807 10809 10813 10818 10822 10826 10826 10826 10824 10821 10816 10813 10810 10803
10907 10903 10899 10893 10887 10880 10872 10868 10860 10852 10843 10834 10824 10815 10808 10800 10792 10786 10782 10777 10774 10771 10770 10772 10775 10780 10781 10780 10784 10789 10793 10796 10795 10797 10802 10803 10804 10805 10804 10803 10800 10796 10793 10788
10898 10893 10890 10885 10878 10871 10863 10856 10848 10841 10829 10820 10808 10800 10791 10784 10776 10770 10768 10767 10763 10761 10760 10762 10765 10768 10767 10767 10770 10773 10776 10778 10781 10782 10783 10785 10786 10786 10786 10785 10783 10779 10774 10767
10889 10884 10880 10874 10868 10861 10851 10847 10838 10830 10816 10807 10795 10786 10776 10768 10763 10764 10754 10755 10754 10753 10754 10754 10755 10755 10755 10756 10759 10762 10763 10764 10766 10768 10769 10771 10771 10771 10770 10768 10765 10761 10754 10747
10878 10873 10867 10862 10856 10851 10841 10834 10826 10819 10808 10796 10784 10773 10765 10757 10752 10751 10748 10748 10746 10746 10746 10747 10748 10747 10747 10748 10751 10753 10755 10756 10756 10757 10757 10758 10758 10758 10756 10752 10748 10743 10736 10729
10867 10862 10856 10849 10841 10834 10826 10819 10810 10801 10791 10778 10769 10759 10754 10746 10744 10741 10740 10741 10741 10741 10741 10741 10740 10741 10742 10743 10745 10747 10747 10747 10748 10748 10748 10747 10745 10743 10739 10735 10730 10725 10718 10710
10855 10850 10844 10838 10830 10822 10813 10802 10794 10786 10776 10762 10753 10745 10739 10734 10736 10734 10733 10734 10736 10737 10735 10736 10734 10734 10735 10736 10736 10737 10737 10738 10738 10737 10736 10734 10731 10727 10724 10720 10716 10709 10702 10695
10842 10838 10833 10825 10816 10809 10802 10792 10782 10771 10760 10744 10734 10728 10721 10721 10725 10726 10726 10727 10730 10730 10730 10729 10728 10728 10729 10729 10728 10728 10728 10728 10726 10724 10722 10718 10715 10712 10709 10704 10698 10693 10686 10680
10827 10825 10818 10812 10800 10795 10785 10777 10766 10753 10739 10723 10712 10707 10706 10710 10715 10718 10721 10723 10724 10724 10723 10723 10724 10722 10721 10720 10719 10718 10717 10716 10713 10711 10708 10706 10703 10698 10693 10688 10684 10679 10673 10669
10816 10812 10805 10797 10788 10782 10768 10757 10746 10732 10714 10702 10693 10691 10697 10703 10707 10709 10713 10716 10717 10718 10716 10716 10718 10715 10714 10714 10712 10709 10706 10703 10701 10700 10698 10694 10690 10684 10679 10675 10671 10667 10662 10659
10806 10796 10791 10785 10778 10770 10757 10742 10729 10715 10694 10684 10680 10682 10688 10693 10699 10702 10705 10707 10709 10710 10709 10711 10711 10710 10708 10705 10702 10699 10696 10694 10691 10689 10687 10683 10679 10675 10671 10667 10661 10656 10652 10649